Location: Boca do Mato
(22.9085°S, 43.2930°W)
Time: 21:29:58
(UTC+00:00)

Cosmos 1470 - Pass Details

Date: 14 July 2020
Orbit: 522 x 541 km, 82.5° (Epoch: 10 August)

Event Time Altitude Azimuth Distance (km) Brightness Sun altitude
Exits shadow 07:57:26 19° 172° (S) 1,286 4.6 -21.8°
Maximum altitude 08:00:02 60° 96° (E) 608 3.2 -21.2°
Drops below altitude 10° 08:03:50 10° 15° (NNE) 1,754 5.8 -20.4°
Sets 08:05:58 0° 12° (NNE) 2,634 6.7 -19.9°
